Temp
3 3 3 3 3 3 5 6 6 7 6 6 7 8 6 7 7 9 10 11 11 11 11 11 11 10 10 10 10 10 10 10 10 9 9 8 8 8 7 8 8 8 8 8 8 7 7 7 7
3 3 2 2 2 5 5 6 5 6 6 6 7 7 7 6 7 9 10 11 11 11 11 11 11 10 10 10 10 10 10 10 10 9 8 8 8 7 7 8 8 8 8 7 7 7 7 7 6
3 2 2 1 2 4 6 5 4 5 5 6 7 7 7 6 7 8 9 10 11 11 10 10 10 10 10 10 9 10 9 10 9 8 8 8 7 7 8 8 8 7 7 7 7 6 6 6 6
2 2 1 1 2 3 4 5 4 5 5 4 6 6 7 5 6 7 9 9 10 11 10 10 10 10 10 9 9 9 9 8 8 8 7 7 7 8 8 7 7 7 7 7 6 6 6 6 6
1 -0 -0 1 2 3 4 4 4 4 5 4 5 6 6 8 5 6 8 8 9 8 9 9 10 9 9 9 9 9 9 8 8 7 7 7 8 8 8 7 7 7 7 6 6 6 6 5 5
-0 -1 -0 1 2 2 3 2 3 3 4 5 3 5 6 7 4 6 7 8 7 7 8 9 9 9 9 9 9 9 8 8 7 7 7 8 8 8 7 7 7 7 6 6 5 5 5 5 5
-1 -3 -1 1 2 2 2 2 2 3 3 4 3 4 5 6 5 6 7 7 7 7 6 9 9 9 8 8 9 8 8 8 7 7 7 8 7 7 7 7 6 6 6 6 5 5 5 5 5
-2 -3 -2 -1 0 1 2 2 2 2 3 3 3 4 4 6 7 5 5 6 6 6 6 6 7 8 8 8 8 8 8 8 8 8 8 7 7 7 7 6 6 6 6 5 5 5 5 5 5
-4 -4 -3 -2 -1 -0 1 1 1 2 2 3 3 3 4 6 4 4 4 4 5 5 5 6 5 8 8 8 8 8 8 8 8 7 7 7 7 6 6 6 6 5 5 5 5 5 5 5 5
-4 -5 -3 -2 -2 -1 -0 1 1 1 1 3 3 3 4 5 5 3 5 5 2 4 5 5 6 8 7 7 7 8 7 7 7 7 7 6 6 6 6 6 5 5 5 5 5 5 5 5 5
-5 -5 -4 -4 -3 -2 -2 -1 0 0 1 2 2 3 4 4 5 4 3 2 2 4 4 5 6 7 7 7 7 7 7 7 7 7 6 6 6 6 5 5 5 5 5 5 5 5 5 5 6
-6 -5 -5 -5 -4 -4 -3 -2 -1 -0 1 1 2 3 3 4 4 4 4 4 4 3 5 4 6 6 7 7 7 7 7 7 7 6 6 6 6 6 6 5 5 5 5 5 5 5 5 5 6
-6 -5 -6 -5 -5 -5 -3 -3 -2 -1 0 2 1 2 2 3 4 4 3 4 3 3 6 4 5 6 7 7 7 6 6 6 6 6 6 6 6 6 5 5 5 5 5 5 6 6 5 5 5
-6 -6 -6 -6 -5 -5 -4 -2 -2 -0 -0 1 2 2 2 3 3 4 4 4 2 3 3 3 4 5 6 6 6 6 6 6 6 6 6 6 6 6 6 6 5 6 6 6 6 6 6 6 5
-6 -6 -5 -6 -5 -5 -4 -4 -3 -1 -0 1 1 2 2 3 3 3 4 6 5 3 3 2 3 4 5 6 6 6 6 6 6 6 6 6 6 5 5 5 6 6 6 6 6 6 6 5 6
-5 -6 -6 -4 -4 -4 -4 -2 -2 -2 -0 0 1 1 1 2 3 4 4 5 5 4 3 1 3 4 4 5 5 6 6 6 6 6 6 6 6 6 5 5 5 6 6 6 6 6 6 5 6
-6 -5 -4 -4 -3 -4 -4 -2 -1 -1 -0 1 0 0 2 2 3 3 4 4 5 4 3 2 1 2 3 4 5 6 6 6 6 6 6 6 6 6 5 5 5 6 5 5 6 6 5 5 5
-4 -4 -3 -3 -3 -3 -2 -2 -1 -0 -1 1 2 1 2 2 2 3 3 4 4 3 3 1 1 3 3 4 4 4 6 6 6 6 6 5 5 6 6 5 5 6 6 5 5 5 5 5 5
-5 -4 -2 -3 -3 -3 -3 -1 -0 -0 -1 2 2 3 2 2 3 3 3 4 3 2 2 2 2 2 3 3 4 4 5 5 5 5 5 5 5 5 6 5 5 5 5 5 5 5 5 5 4
-4 -4 -3 -3 -2 -2 -2 -1 0 -1 -0 -1 0 2 2 1 2 4 3 3 3 3 2 2 2 2 4 3 3 4 4 4 4 4 5 4 5 5 5 5 4 5 5 5 5 5 4 4 4
-4 -2 -3 -3 -3 -2 -1 0 -0 0 -0 -1 1 3 3 2 2 3 3 3 3 2 2 1 2 2 2 2 3 3 4 4 4 4 4 4 4 5 4 3 4 4 4 4 4 4 4 3 3
-3 -3 -3 -2 -3 -0 -1 -2 -2 -1 -1 0 2 3 2 2 2 1 1 1 1 0 1 2 2 2 2 3 2 3 3 4 4 4 4 3 4 4 3 3 4 3 4 3 3 3 3 3 3
-3 -3 -2 -2 -2 -0 -2 -2 -2 -1 0 1 1 3 3 2 2 1 1 2 1 1 1 2 2 3 3 3 2 2 4 4 3 2 4 5 3 3 3 3 3 2 3 3 2 1 2 1 1
-2 -2 -2 -2 -1 1 -2 -2 -2 -2 -1 1 1 1 2 2 1 2 1 2 2 2 2 2 2 3 3 3 3 3 3 2 3 3 3 2 2 2 2 2 3 3 2 2 1 1 2 1 1
-2 -2 -1 -0 0 -0 -2 -2 -3 -1 0 1 1 1 1 0 0 2 1 2 2 2 2 3 3 3 3 3 3 3 4 3 3 3 3 3 3 3 2 2 2 2 2 2 2 2 2 2 2
-2 -2 -0 1 1 0 -2 -1 -3 -0 1 0 0 1 1 1 1 1 1 2 2 2 3 3 3 3 3 3 3 3 3 3 3 3 3 3 3 3 3 3 3 3 2 2 2 2 2 1 2
-3 -2 -2 -1 0 2 -1 -1 -2 -1 -1 -0 0 1 1 1 0 0 0 1 2 2 3 3 3 3 2 3 3 3 2 2 2 3 3 3 3 3 3 3 3 3 3 2 2 1 1 1 1
-2 -1 -0 -0 1 1 1 0 -1 -2 -1 -1 -0 1 1 1 1 0 1 2 2 2 2 2 2 2 3 3 2 3 3 2 2 2 2 3 3 3 3 3 2 2 2 2 1 1 0 0 -0
-1 -1 -0 -1 -1 3 2 1 -1 0 -0 0 1 1 1 1 1 2 2 2 2 2 2 2 2 2 2 2 2 2 2 2 2 2 2 2 2 2 2 2 2 1 1 1 0 0 -0 -0 -1
-1 -1 -0 1 -0 -1 2 0 -0 0 0 1 1 1 1 1 2 1 1 1 1 1 1 1 1 1 2 2 2 2 2 2 2 2 2 2 2 2 2 1 1 1 1 1 0 -0 -0 -0 -0
Height
3116 3119 3121 3125 3130 3117 3112 3120 3127 3131 3133 3137 3134 3135 3138 3141 3145 3148 3143 3144 3146 3146 3147 3149 3150 3151 3153 3154 3155 3158 3159 3160 3161 3163 3165 3168 3171 3172 3174 3175 3175 3176 3176 3177 3177 3177 3177 3177 3177
3112 3114 3118 3118 3115 3106 3107 3118 3120 3126 3129 3129 3131 3132 3135 3137 3139 3139 3140 3141 3143 3144 3145 3147 3149 3150 3152 3153 3154 3157 3159 3160 3161 3163 3166 3168 3171 3172 3173 3174 3175 3176 3177 3177 3178 3178 3178 3178 3178
3109 3111 3114 3109 3102 3096 3107 3113 3118 3122 3124 3124 3126 3127 3128 3130 3134 3136 3138 3138 3139 3141 3143 3145 3147 3148 3150 3152 3153 3155 3158 3159 3161 3163 3165 3168 3170 3172 3173 3174 3175 3176 3177 3177 3178 3178 3179 3179 3179
3104 3106 3106 3096 3088 3098 3104 3111 3114 3118 3118 3117 3121 3119 3125 3126 3129 3132 3135 3136 3137 3139 3140 3143 3145 3146 3149 3151 3152 3154 3156 3158 3161 3163 3164 3167 3169 3171 3172 3174 3175 3176 3177 3178 3179 3179 3180 3180 3180
3098 3097 3096 3086 3085 3096 3101 3106 3111 3113 3114 3112 3116 3115 3117 3125 3129 3132 3133 3134 3134 3136 3138 3140 3143 3145 3147 3149 3151 3153 3155 3157 3159 3162 3164 3166 3168 3170 3172 3174 3175 3177 3178 3179 3180 3180 3181 3181 3181
3090 3091 3087 3078 3084 3091 3095 3101 3106 3107 3108 3111 3110 3114 3114 3122 3123 3129 3130 3131 3133 3133 3134 3137 3140 3142 3145 3148 3150 3152 3154 3156 3158 3161 3164 3166 3168 3170 3172 3174 3175 3177 3178 3179 3180 3181 3182 3182 3182
3083 3084 3077 3078 3081 3084 3090 3097 3098 3099 3103 3105 3106 3109 3110 3117 3119 3118 3124 3128 3131 3131 3133 3133 3136 3138 3142 3145 3148 3151 3153 3156 3157 3160 3163 3166 3168 3170 3172 3174 3176 3177 3178 3180 3181 3181 3182 3182 3183
3077 3077 3071 3072 3075 3077 3087 3089 3091 3093 3095 3102 3102 3100 3102 3110 3110 3113 3115 3124 3125 3128 3130 3131 3132 3135 3138 3142 3146 3148 3152 3155 3157 3160 3162 3165 3168 3170 3172 3174 3176 3178 3179 3180 3181 3182 3182 3182 3182
3069 3068 3062 3066 3071 3076 3081 3082 3084 3086 3090 3094 3095 3096 3098 3103 3096 3106 3106 3087 3116 3123 3126 3128 3129 3131 3135 3139 3143 3146 3150 3153 3156 3159 3162 3165 3167 3170 3172 3174 3176 3178 3179 3180 3181 3182 3182 3182 3181
3057 3057 3057 3063 3066 3070 3072 3075 3077 3081 3082 3085 3089 3091 3095 3100 3100 3098 3097 3099 3091 3118 3122 3124 3126 3129 3133 3136 3140 3144 3148 3151 3154 3157 3160 3163 3166 3168 3171 3174 3175 3177 3179 3180 3180 3181 3181 3181 3181
3049 3047 3054 3055 3059 3063 3065 3067 3071 3072 3073 3079 3086 3091 3090 3092 3093 3093 3098 3099 3092 3106 3117 3120 3122 3126 3130 3133 3137 3143 3146 3150 3152 3156 3158 3161 3165 3168 3170 3173 3174 3176 3177 3178 3178 3179 3179 3179 3179
3042 3042 3046 3048 3052 3055 3057 3061 3062 3065 3068 3076 3080 3080 3081 3085 3088 3090 3090 3098 3093 3097 3112 3116 3120 3124 3128 3131 3135 3140 3144 3147 3150 3154 3157 3161 3164 3166 3169 3171 3173 3174 3175 3176 3176 3177 3177 3177 3177
3037 3039 3041 3041 3044 3047 3051 3051 3055 3057 3061 3066 3071 3075 3076 3080 3083 3082 3087 3091 3095 3102 3101 3113 3120 3123 3126 3129 3132 3138 3143 3146 3149 3153 3156 3159 3162 3165 3167 3169 3171 3173 3174 3174 3174 3175 3175 3175 3175
3036 3035 3034 3035 3037 3040 3044 3045 3049 3052 3053 3058 3064 3069 3070 3075 3080 3082 3090 3095 3098 3097 3098 3108 3117 3122 3124 3128 3133 3138 3141 3145 3148 3151 3154 3156 3159 3163 3165 3168 3169 3170 3171 3172 3172 3173 3173 3173 3173
3030 3030 3028 3027 3029 3034 3041 3040 3041 3047 3050 3053 3056 3063 3067 3069 3075 3084 3085 3091 3092 3095 3095 3099 3112 3118 3123 3127 3132 3137 3140 3144 3147 3150 3153 3155 3157 3159 3162 3164 3166 3168 3169 3170 3170 3171 3171 3172 3172
3027 3024 3022 3019 3025 3029 3035 3034 3042 3042 3044 3048 3050 3057 3066 3067 3070 3078 3081 3083 3086 3088 3096 3100 3107 3115 3121 3125 3132 3136 3139 3142 3145 3148 3151 3154 3156 3158 3159 3161 3162 3164 3166 3167 3168 3168 3169 3169 3169
3024 3020 3016 3017 3021 3025 3029 3033 3037 3038 3042 3046 3046 3050 3058 3061 3065 3073 3077 3082 3085 3087 3092 3099 3102 3111 3119 3123 3129 3135 3137 3140 3143 3146 3149 3151 3154 3156 3157 3159 3159 3161 3162 3163 3165 3165 3165 3166 3166
3020 3020 3018 3016 3018 3022 3026 3028 3032 3034 3034 3036 3040 3047 3055 3059 3064 3073 3076 3080 3085 3087 3092 3094 3101 3108 3116 3119 3124 3129 3134 3137 3140 3143 3146 3148 3150 3153 3154 3156 3156 3158 3159 3159 3160 3161 3161 3162 3162
3018 3019 3017 3015 3016 3020 3021 3024 3027 3031 3034 3034 3039 3045 3051 3055 3057 3063 3069 3075 3080 3086 3089 3098 3102 3108 3111 3114 3119 3125 3129 3133 3135 3138 3140 3143 3145 3147 3150 3151 3151 3153 3154 3153 3154 3155 3156 3157 3157
3019 3019 3018 3018 3017 3020 3020 3019 3022 3027 3031 3032 3038 3043 3049 3051 3056 3054 3065 3072 3076 3083 3089 3094 3099 3104 3107 3111 3116 3120 3123 3129 3130 3132 3135 3138 3140 3142 3144 3145 3145 3146 3146 3146 3148 3149 3151 3151 3152
3017 3019 3018 3017 3017 3018 3017 3020 3022 3021 3023 3024 3036 3041 3045 3049 3052 3055 3061 3068 3074 3080 3086 3091 3097 3101 3104 3107 3110 3112 3115 3121 3125 3126 3128 3130 3133 3135 3136 3138 3140 3139 3139 3140 3141 3142 3144 3145 3146
3017 3017 3019 3017 3019 3020 3021 3021 3019 3019 3019 3025 3032 3039 3047 3052 3055 3057 3060 3067 3072 3075 3084 3088 3093 3097 3101 3102 3106 3110 3110 3113 3116 3118 3122 3125 3127 3129 3130 3132 3131 3130 3127 3130 3133 3135 3136 3138 3139
3017 3016 3018 3018 3018 3019 3020 3018 3016 3014 3014 3025 3032 3038 3046 3052 3056 3059 3057 3069 3072 3076 3082 3086 3091 3094 3097 3100 3101 3102 3105 3108 3110 3114 3118 3120 3121 3120 3124 3124 3124 3126 3125 3122 3124 3127 3130 3132 3134
3016 3018 3020 3020 3020 3021 3022 3022 3018 3014 3020 3027 3034 3043 3046 3050 3055 3060 3063 3066 3070 3073 3080 3084 3086 3089 3095 3099 3100 3098 3092 3100 3107 3110 3110 3111 3112 3114 3112 3112 3115 3118 3117 3119 3123 3125 3128 3127 3127
3018 3020 3020 3023 3021 3024 3024 3023 3026 3024 3025 3029 3033 3039 3045 3050 3054 3057 3060 3066 3073 3079 3083 3085 3087 3089 3092 3093 3095 3096 3098 3100 3099 3103 3106 3106 3106 3108 3108 3109 3109 3113 3114 3114 3117 3120 3120 3120 3120
3020 3021 3017 3015 3019 3026 3027 3031 3032 3028 3027 3028 3032 3040 3045 3050 3054 3054 3061 3070 3076 3080 3082 3083 3085 3087 3089 3091 3092 3093 3094 3096 3098 3101 3102 3102 3103 3104 3104 3104 3104 3108 3109 3111 3113 3115 3115 3116 3116
3020 3021 3020 3020 3025 3025 3035 3036 3036 3031 3031 3033 3037 3043 3048 3052 3056 3059 3064 3071 3075 3078 3080 3081 3082 3085 3086 3087 3089 3089 3092 3094 3096 3098 3099 3100 3100 3098 3099 3101 3102 3102 3105 3106 3108 3109 3110 3110 3111
3021 3022 3023 3021 3023 3030 3038 3037 3040 3041 3041 3039 3045 3048 3053 3057 3060 3064 3069 3072 3075 3076 3076 3079 3082 3084 3085 3086 3085 3087 3088 3090 3092 3094 3094 3093 3094 3094 3094 3096 3097 3098 3100 3100 3103 3104 3104 3105 3105
3025 3025 3024 3023 3025 3023 3031 3045 3045 3046 3047 3050 3052 3055 3059 3061 3064 3068 3070 3071 3072 3074 3076 3079 3079 3081 3083 3083 3084 3084 3085 3086 3087 3088 3086 3086 3088 3089 3090 3090 3092 3094 3095 3095 3096 3099 3097 3098 3099
3026 3025 3024 3023 3030 3029 3033 3049 3048 3049 3050 3053 3057 3060 3062 3064 3067 3070 3072 3073 3074 3075 3077 3077 3075 3077 3077 3076 3077 3077 3080 3081 3081 3080 3080 3081 3082 3082 3083 3085 3086 3087 3088 3088 3090 3091 3091 3092 3091
Wind_Speed
22 23 25 27 23 24 38 37 27 28 24 29 30 30 16 17 11 14 10 21 20 15 17 17 15 14 14 13 11 11 12 14 16 18 21 22 19 16 14 11 11 12 12 10 9 10 11 12 14
21 23 26 27 32 37 36 31 31 27 22 25 32 33 26 13 21 19 12 17 23 19 20 18 16 16 15 14 13 12 12 15 18 21 23 22 18 17 14 13 14 13 11 11 11 13 14 14 15
20 24 27 27 37 47 37 32 33 29 25 25 30 37 30 19 20 24 17 14 23 23 23 19 17 17 17 16 16 16 16 18 21 23 24 22 21 18 15 16 16 13 12 13 14 15 15 14 13
23 26 31 35 42 35 40 33 27 30 27 29 29 32 47 27 17 21 24 14 23 26 25 22 20 19 18 18 19 21 22 22 22 25 26 24 22 17 19 18 16 15 15 15 15 15 14 13 12
26 27 29 37 43 37 32 34 28 30 29 29 34 35 36 52 26 16 22 21 25 28 27 24 22 21 20 21 22 24 25 25 24 24 25 22 19 20 20 18 16 16 16 16 15 14 12 10 10
29 30 29 42 39 37 37 30 37 29 24 28 32 29 35 34 49 18 16 21 25 28 27 27 25 23 23 23 24 26 28 28 26 27 23 20 22 22 20 19 19 18 17 15 14 12 10 8 6
32 25 37 39 36 38 35 36 37 35 31 27 28 33 42 42 52 24 18 22 28 30 28 29 27 27 26 26 26 28 30 30 29 26 22 23 23 22 21 21 19 18 16 14 12 10 8 6 4
30 27 35 39 37 38 32 33 37 38 36 24 27 32 36 37 45 56 30 28 34 33 31 29 28 30 30 29 29 29 30 31 29 26 25 25 23 22 21 20 19 17 15 13 11 8 6 4 2
27 31 37 36 36 32 30 32 34 36 35 29 30 30 30 25 37 53 60 39 33 38 33 31 29 32 31 30 30 31 31 30 29 28 27 25 24 24 22 20 19 16 13 11 8 6 5 3 3
33 32 37 31 29 31 28 30 34 32 36 43 26 31 32 32 29 36 58 48 21 40 38 36 35 34 34 32 32 32 32 32 32 31 29 28 27 25 23 20 18 14 11 9 7 6 5 5 5
28 38 31 31 30 27 26 28 27 26 36 39 29 27 34 38 37 33 32 37 47 42 38 35 36 36 36 35 34 33 34 33 33 32 31 29 27 25 22 19 16 13 11 9 7 7 6 6 5
27 33 32 35 31 27 29 27 27 33 33 34 33 26 33 36 37 36 31 37 36 40 36 34 36 37 37 36 35 35 35 35 34 32 31 28 27 24 21 18 15 12 10 9 8 8 7 6 6
26 27 25 30 31 30 27 27 29 32 29 38 46 28 28 32 33 32 29 32 32 29 39 31 32 35 36 37 37 35 35 35 34 33 31 29 26 23 20 17 15 12 11 10 9 9 8 7 7
13 20 26 25 26 27 29 33 25 32 31 35 48 30 26 32 33 33 34 28 34 14 28 30 28 32 33 35 35 35 36 36 36 34 33 30 27 23 20 17 16 14 13 12 11 10 9 8 8
19 21 22 26 29 24 27 30 31 30 31 29 41 28 22 34 36 29 29 23 27 26 14 35 31 28 28 31 34 35 36 36 36 34 32 29 27 25 22 20 18 17 16 15 14 13 11 11 10
17 20 21 20 26 25 26 28 26 26 32 30 38 39 30 33 31 28 18 11 14 15 28 38 30 27 25 26 28 33 35 35 34 33 30 28 26 25 24 22 20 19 18 17 17 16 15 13 12
18 18 18 14 22 22 27 17 23 23 29 33 37 37 34 31 34 34 16 18 14 19 17 23 36 30 21 21 21 28 34 34 34 32 30 28 27 26 24 23 22 22 21 20 20 20 18 17 15
9 12 5 7 18 23 24 29 18 22 17 28 33 34 33 32 37 31 30 25 23 25 16 30 34 22 20 23 18 25 32 34 33 32 31 29 28 27 26 26 25 26 25 23 23 23 23 20 17
10 10 3 3 10 16 18 24 28 28 14 27 31 35 34 35 37 40 37 33 29 29 30 28 28 27 20 22 21 31 33 34 31 28 30 29 29 29 30 29 28 29 29 27 28 27 26 22 20
5 10 7 7 13 7 7 13 15 29 28 10 29 32 36 31 31 35 46 41 36 30 34 31 25 21 28 22 23 29 35 36 29 25 29 29 30 28 31 31 30 32 33 32 31 30 27 25 24
9 14 10 15 14 12 9 10 20 34 30 13 33 33 33 27 27 27 44 48 36 35 38 18 15 20 21 25 17 27 36 40 36 30 25 29 33 35 35 35 32 31 31 34 31 31 30 27 26
10 15 12 9 3 4 4 1 6 10 14 26 35 31 34 32 29 25 23 11 21 20 24 19 16 17 21 25 22 13 24 34 39 40 39 33 38 38 37 42 39 39 32 30 32 32 29 26 24
6 14 7 4 4 4 12 5 15 7 24 27 25 28 32 26 20 14 7 13 12 11 13 14 15 15 15 18 27 25 18 32 32 34 51 58 37 30 55 51 37 29 36 32 36 37 27 34 27
11 14 12 6 4 2 8 4 16 14 6 27 27 25 28 26 21 19 18 14 11 11 17 20 20 19 22 22 23 26 26 28 17 18 20 23 26 28 28 28 42 20 28 28 12 21 20 31 47
18 16 5 3 3 3 4 5 11 10 5 22 30 24 24 23 21 21 18 14 18 20 19 18 19 21 22 20 21 20 19 22 18 17 21 22 22 19 19 18 11 17 16 14 15 18 15 15 16
17 3 3 4 4 5 2 8 11 14 8 10 30 26 27 22 22 20 18 18 15 15 16 17 18 18 17 17 16 16 15 16 15 18 17 17 16 17 16 16 17 17 13 17 18 20 19 20 21
8 2 6 12 10 8 4 8 13 20 19 18 26 25 18 17 14 10 16 18 20 20 21 18 21 25 24 23 23 20 20 18 15 15 16 17 17 17 16 17 17 17 18 19 23 20 18 19 23
7 5 2 3 4 5 6 11 9 13 16 21 18 14 11 9 8 8 9 12 16 17 18 18 18 20 26 29 29 29 30 27 26 25 25 24 24 23 22 21 18 18 19 19 20 21 21 22 24
9 5 5 6 4 4 6 7 10 16 20 20 19 18 17 14 11 8 7 7 8 9 13 18 17 17 18 21 23 25 28 31 31 31 30 28 27 26 25 24 24 22 22 21 21 22 22 23 28
15 18 10 4 5 7 10 6 15 16 16 17 16 14 12 10 8 8 7 6 6 7 8 11 15 18 19 20 21 21 24 27 29 31 31 30 28 27 27 29 28 26 24 23 23 23 24 28 27
Wind_Direction
229 225 225 225 225 229 234 230 231 225 225 223 223 215 198 215 207 221 225 226 224 223 213 215 203 195 193 186 188 189 177 172 169 169 164 163 164 164 160 159 149 144 139 136 133 129 121 116 111
229 223 226 227 228 231 231 227 227 220 224 224 231 223 207 220 219 223 220 213 218 216 208 210 200 195 191 184 182 181 171 165 163 159 155 162 164 164 162 160 153 149 146 140 136 127 122 117 112
233 222 224 229 234 235 236 229 227 227 226 225 231 226 215 208 219 224 222 218 209 205 204 206 195 195 191 184 178 170 162 155 150 150 159 163 167 166 165 160 155 152 148 142 136 129 123 118 114
230 228 227 231 234 236 234 232 233 231 231 232 234 233 228 230 220 221 221 231 205 201 200 202 195 194 190 183 178 168 164 158 157 163 167 165 166 171 163 159 159 155 149 144 139 131 125 120 116
230 227 230 240 240 237 235 231 231 230 231 240 233 234 244 239 234 232 225 229 206 193 197 198 196 192 187 182 179 172 168 165 163 168 163 166 170 166 163 161 162 155 151 147 138 130 123 119 116
230 225 235 239 243 239 233 229 223 234 226 234 231 238 241 242 243 214 220 222 207 193 194 196 195 190 185 182 180 176 174 172 166 170 172 172 167 166 167 165 160 156 153 146 136 129 126 121 114
233 229 239 245 247 241 235 229 231 233 233 229 236 231 244 238 237 201 189 216 205 198 195 195 193 189 185 182 181 179 178 178 176 180 178 172 168 168 168 164 160 157 153 146 141 137 133 127 116
237 234 244 243 243 243 236 234 234 233 231 232 235 231 244 242 241 237 221 208 206 198 200 193 191 189 185 182 181 180 179 181 183 181 175 170 170 168 165 162 158 155 152 148 148 150 154 154 159
240 238 243 242 240 244 236 234 237 239 236 227 236 232 237 244 257 247 241 246 207 197 196 190 191 188 184 183 181 179 178 178 177 174 171 170 168 165 164 161 158 155 154 157 164 175 185 209 223
234 234 240 242 244 242 245 235 237 236 232 231 222 234 232 240 247 260 243 234 302 203 193 192 193 187 183 180 180 179 177 175 173 171 170 168 167 166 165 164 162 164 170 180 190 206 215 228 243
240 238 240 243 240 238 243 236 236 231 233 226 227 238 231 238 244 247 239 239 271 197 190 200 189 186 183 180 180 178 176 175 175 174 171 171 169 167 168 167 168 175 187 198 212 225 238 243 251
244 247 242 243 239 240 237 238 233 237 237 223 225 221 232 238 241 246 251 256 174 175 193 199 189 187 184 181 179 180 179 178 175 174 172 170 170 169 169 173 182 192 205 221 229 239 243 248 252
248 250 245 247 243 238 236 238 235 233 233 230 221 223 227 231 239 238 242 262 217 189 196 199 193 188 185 183 181 182 180 178 176 174 173 171 173 175 181 191 199 209 220 231 237 241 245 249 255
251 252 248 246 244 242 237 230 236 229 235 236 224 216 226 226 225 233 245 257 205 245 184 186 190 190 188 186 185 184 182 180 179 178 178 179 184 189 196 206 215 222 231 238 241 243 245 251 259
248 251 258 242 235 238 226 240 236 234 232 232 222 206 228 220 223 232 249 249 231 253 211 182 179 183 189 191 190 189 187 185 184 185 188 191 195 200 207 216 225 235 240 242 243 244 245 255 266
247 249 250 235 214 226 213 235 229 237 236 233 225 217 233 216 201 217 235 173 182 185 206 188 175 177 186 188 199 196 193 193 193 195 198 203 209 213 217 222 230 238 243 246 247 246 247 254 263
261 265 237 211 205 212 210 228 220 229 237 235 233 223 225 224 199 210 199 209 190 188 204 198 180 176 188 189 201 209 202 202 203 206 210 214 220 225 229 235 239 245 246 247 249 247 247 252 261
287 239 219 180 191 204 215 232 247 224 256 227 224 215 219 220 204 206 195 188 178 175 179 179 171 192 211 210 226 226 215 211 214 216 218 223 229 236 242 246 250 252 253 252 252 247 246 249 257
271 247 204 149 181 199 220 233 240 209 271 208 223 219 219 220 214 211 202 182 176 175 168 176 189 202 211 212 241 238 228 221 218 222 225 229 233 237 240 246 252 255 254 251 249 246 243 245 250
228 208 165 142 159 181 216 254 238 224 256 195 231 218 216 227 203 210 202 189 186 185 177 184 182 192 211 217 236 227 230 225 218 221 230 234 235 240 245 249 251 254 255 250 246 244 241 242 244
214 192 174 133 112 100 44 263 270 251 251 195 209 212 208 211 215 212 188 198 194 201 201 176 191 207 194 182 181 229 229 230 228 226 239 243 239 241 240 244 248 254 256 249 242 239 233 235 240
190 196 195 189 174 123 93 333 319 161 177 164 198 203 195 194 205 222 171 189 187 183 180 192 194 197 199 225 226 221 212 217 227 233 238 249 251 242 242 241 240 255 241 230 229 230 229 228 235
191 189 181 183 222 96 27 1 1 99 121 145 166 190 192 199 204 186 157 158 189 162 179 190 205 204 216 221 248 212 228 221 223 237 250 248 241 246 254 249 239 248 250 246 248 234 229 233 234
145 161 154 147 166 99 22 355 21 43 106 149 154 164 163 156 148 158 164 169 188 205 215 218 226 234 230 235 241 257 228 242 251 251 270 252 249 252 260 257 240 272 237 243 273 270 275 257 250
155 152 144 151 66 53 61 41 36 15 103 179 158 160 176 167 176 163 144 171 193 197 203 215 222 224 230 236 239 250 248 253 246 255 258 266 257 265 261 288 257 285 305 251 287 267 265 276 284
165 215 292 112 132 115 17 43 1 65 114 169 174 176 172 167 175 162 174 189 196 208 216 222 231 241 245 244 251 253 256 247 246 247 253 259 255 260 266 262 255 247 258 271 254 267 261 265 266
99 51 115 108 98 84 53 80 53 84 101 131 159 182 181 199 205 195 192 213 225 233 238 243 246 246 253 259 259 260 264 263 257 257 259 263 269 274 272 266 262 256 242 255 261 262 263 269 272
73 67 89 71 116 99 96 66 80 74 96 101 98 127 149 155 153 170 211 213 223 231 238 247 243 239 238 244 250 256 258 257 259 263 267 272 272 273 271 269 266 266 261 258 261 258 263 268 270
46 47 75 87 69 114 123 92 124 110 111 114 117 118 123 131 146 174 199 213 223 231 237 238 234 236 239 244 248 249 252 256 261 266 270 271 270 268 267 264 266 268 258 256 257 259 264 268 272
56 51 52 59 70 77 89 86 142 129 122 122 123 130 142 151 164 178 181 188 204 217 222 230 239 249 251 253 258 258 255 254 256 260 264 266 265 265 265 264 264 262 259 257 259 268 263 267 280